Terminal Aerodrome Forecast
Issued by NWS

Home | Current Version | Previous Version | Graphics & Text | Print | Product List | Glossary On
Versions: 1 2 3 4 5 6 7 8 9 10 11 12 13 14 15
000
FTUS45 KGGW 171700
TAFSDY
TAF
KSDY 171723Z 1718/1818 36007KT P6SM SCT250
      TEMPO 1718/1719 P6SM OVC015
     FM181600 17008KT P6SM SCT100 SCT250
      AMD LTD TO CLD VIS AND WIND=

USA.gov is the U.S. government's official web portal to all federal, state and local government web resources and services.